Location: ?
(35.9149°N, 139.5236°E)
Time: 00:31:38
(UTC+00:00)

Daily predictions for brighter satellites

Satellite Brightness Start Highest point End
(mag) Time Altitude Azimuth Time Altitude Azimuth Time Altitude Azimuth
Cosmos 1862 3.3 07:53:53 10° N 07:57:51 66° E 08:01:48 10° SSE
Atlas Centaur 2 2.5 07:55:10 10° WSW 07:58:21 31° S 08:01:40 10° ESE
SL-4 R/B 2.8 07:53:56 10° NW 07:58:34 67° SW 08:03:20 10° SE
USA 308 4.5 07:55:13 10° W 07:58:54 28° NW 08:02:36 10° NNE
ATLAS 3B R/B 3.4 07:56:55 10° NW 08:04:12 69° WSW 08:11:42 10° SSE
Okean 3 Rocket 3.6 08:03:59 10° N 08:08:32 85° E 08:12:59 10° S
ERBS 3.2 08:06:38 10° WSW 08:09:40 42° NW 08:12:45 10° NNE
CZ-2C R/B 3.3 08:05:49 10° NNE 08:10:29 33° E 08:15:05 10° SSE
H-2A R/B 2.4 08:10:49 10° SE 08:15:46 42° ENE 08:20:37 10° N
Iridium 2 4.1 08:12:44 10° N 08:16:28 66° W 08:20:10 10° S
CZ-4B R/B 4.3 08:12:22 10° S 08:16:32 46° W 08:20:32 10° NNW
Lacrosse 5 2.0 08:12:51 10° NNW 08:17:50 51° NE 08:22:47 10° ESE
Cosmos 1606 3.1 08:14:14 10° SSW 08:17:56 66° W 08:21:41 10° N
Cosmos 1500 Rocket 4.4 08:14:41 10° NNE 08:18:34 29° ENE 08:22:25 10° SE
MOS 1-B Rocket 4.2 08:12:54 10° NNE 08:18:36 55° ESE 08:24:58 10° S
Cosmos 1464 Rocket 4.2 08:12:24 10° S 08:18:44 82° W 08:25:10 10° N
SJ 16-02 1.3 08:15:10 10° N 08:19:31 61° ENE 08:23:49 10° SSE
CZ-4C R/B 4.5 08:21:50 16° E 08:22:14 16° E 08:24:19 10° SE
Cosmos 1842 Rocket 3.6 08:19:06 10° S 08:23:30 89° WNW 08:27:59 10° N
CZ-4B DEB 4.2 08:18:02 10° SSE 08:23:33 76° ENE 08:29:04 10° N
Cosmos 1777 Rocket 4.1 08:19:21 10° NNW 08:24:38 86° WSW 08:29:56 10° SSE
TIMED 4.4 08:21:47 10° SSW 08:26:08 77° ESE 08:30:30 10° NNE
Meteor 2-19 Rocket 4.4 08:21:41 10° N 08:27:46 74° E 08:33:49 10° SSE
Cosmos 1697 Rocket 4.1 08:26:59 10° NNE 08:30:22 16° NE 08:30:41 16° ENE
COSMOS 2406 4.1 08:25:52 10° SSE 08:30:45 29° ESE 08:34:15 16° NE
PAYLOAD B 4.2 08:27:00 10° SSE 08:32:33 70° ENE 08:38:09 10° N
Cosmos 2082 Rocket 3.6 08:29:24 10° SE 08:32:53 17° E 08:33:34 16° E
COSMOS 2455 4.0 08:33:55 10° SSE 08:38:29 23° ESE 08:40:17 20° E
Cosmos 1782 3.7 08:35:06 10° SSE 08:38:31 27° E 08:39:40 24° ENE
Cosmos 468 Rocket 4.0 08:34:37 10° S 08:39:36 55° ESE 08:44:22 11° NNE
GEOS 3 Rocket 4.1 08:37:10 10° ESE 08:42:01 39° NE 08:46:50 10° NNW
Nadezhda 4 Rocket 4.0 08:38:42 10° N 08:45:02 90° E 08:51:22 10° S
Okean O Rocket 1.8 08:42:51 10° SE 08:47:04 46° ENE 08:51:21 10° N
Cosmos 1656 3.9 08:41:55 10° N 08:47:11 43° ENE 08:52:29 10° SE
ATLAS CENTAUR R/B 3.6 08:38:22 10° SW 08:51:03 74° NW 08:55:00 18° NNE
COSMO-SKYMED 1 2.5 08:48:07 10° N 08:52:29 86° WNW 08:56:49 10° SSW
Cosmos 1933 3.2 08:48:28 10° S 08:52:31 71° E 08:56:13 12° NNE
Cosmos 1092 Rocket 4.0 08:46:29 10° N 08:52:46 59° E 08:58:59 10° SSE
GPS 2-04 Rocket1 3.7 08:50:30 10° SW 08:54:13 35° SSE 08:55:25 28° ESE
Cosmos 2221 4.4 08:51:07 10° SW 08:54:52 30° WNW 08:58:39 10° NNW
Cosmos 1340 Rocket 2.7 08:51:03 10° N 08:55:08 81° E 08:59:12 10° S
Meteor 1-20 Rocket 4.2 08:52:35 10° N 08:58:24 70° E 09:04:13 10° SSE
Cosmos 540 Rocket 3.6 08:54:22 10° S 08:59:15 48° ESE 09:01:24 30° NE
deb Chang Zheng 4 3.4 08:58:20 10° SSE 09:02:37 89° ESE 09:06:57 10° NNW
Meteor 2-14 Rocket 4.5 08:57:31 10° N 09:03:28 51° E 09:09:20 10° SSE
CZ-4B R/B 3.2 09:02:03 10° SSE 09:07:35 83° WSW 09:13:02 10° NNW
Cosmos 1627 Rocket 4.3 09:02:31 10° N 09:08:42 68° E 09:14:46 10° SSE
Cosmos 1809 Rocket 4.3 09:03:16 10° N 09:09:22 71° E 09:15:24 10° SSE
Cosmos 1428 Rocket 4.3 09:03:49 10° N 09:09:55 70° E 09:16:02 10° SSE
Cosmos 1833 Rocket 2.6 09:05:08 10° SSW 09:10:44 88° ESE 09:14:31 22° NNE
CZ-4 R/B 4.3 09:07:21 10° SSE 09:11:27 85° ENE 09:15:35 10° N
Landsat 5 3.7 09:07:53 12° N 09:11:45 69° WNW 09:15:47 10° SSW
USA 229 DEB 4.4 09:06:22 10° NNW 09:13:15 39° NE 09:15:05 35° E
USA 229 4.4 09:06:29 10° NNW 09:13:21 39° NE 09:15:06 35° ENE
Cosmos 1602 3.8 09:16:55 10° N 09:21:16 65° S 09:24:36 10° S
Cosmos 2279 Rocket 3.9 09:15:19 10° S 09:21:26 62° E 09:25:47 20° NNE
ARGOS 3.3 09:18:47 10° S 09:24:12 75° WSW 09:29:38 10° NNW
Cosmos 841 Rocket 3.3 09:19:28 10° S 09:24:35 66° ESE 09:25:14 60° ENE
Cosmos 1763 Rocket 4.3 09:20:26 10° SW 09:25:18 48° WNW 09:29:21 15° N
Cosmos 1634 Rocket 4.2 09:22:07 10° SSW 09:28:23 71° W 09:34:43 10° N
BREEZE-M DEB (TANK) 4.2 09:13:26 10° NW 09:32:57 82° NE 09:34:39 49° ESE
NOSS 3-1 (A) 4.1 09:29:09 10° NNW 09:36:53 60° NE 09:39:43 43° ESE
NOSS 3-1 (C) 4.2 09:33:29 10° NNW 09:41:26 85° WSW 09:50:28 10° SSE
Cosmos 990 Rocket 4.3 09:39:53 10° NNW 09:45:01 63° WSW 09:50:05 10° S
CZ-4C R/B 4.3 09:39:50 10° N 09:42:57 20° NNE 09:42:57 20° NNE
Atlas Centaur 2 3.5 09:44:05 10° WSW 09:46:22 17° SSW 09:46:22 17° SSW
Cosmos 44 3.8 09:42:25 10° NNW 09:45:52 48° NW 09:45:52 48° NW
ATLAS 3B CENTAUR R/B 4.5 09:35:49 10° SW 09:52:25 45° SSE 09:56:33 36° SE
Cosmos 2180 Rocket 4.4 09:46:50 10° S 09:53:14 85° E 09:54:07 68° NNE
Lacrosse 5 4.2 09:56:37 10° WNW 10:00:27 22° WSW 10:04:18 10° S
Cosmos 1697 Rocket 3.8 10:09:16 10° NNW 10:12:31 35° NW 10:12:31 35° NW
Cosmos 2082 Rocket 2.9 10:10:49 10° SW 10:15:29 51° WSW 10:15:29 51° WSW
COSMOS 2455 3.6 10:18:13 10° SW 10:23:30 47° WNW 10:23:30 47° WNW
